7 * 24
多渠道服务支持
NINGXIA-1 4 是由中国宁夏回族自治区主导研制的一颗遥感卫星,主要用于国土资源监测、农业资源调查、生态环境评估等领域。该卫星具备高分辨率成像能力,可提供多光谱和全色影像数据,支持地方经济发展与科学决策。作为宁夏“天地一体化”信息网络建设的重要组成部分,NINGXIA-1 4 卫星的发射提升了区域遥感数据获取能力和应用水平,推动了宁夏在航天科技与数字经济发展方面的进程。
中国
(CN)
| 数据来源 | 国际轨道数据 |
| 星历时间: | 2025-10-29T00:31:58+0800 16小时前 查看轨道信息 |
| 半长轴: | 7265.074km |
| 偏心率: | 0.001251 |
| 轨道倾角: | 45.006° |
| 近地点辐角 | 109.029° |
| 升交点赤经 | 134.288° |
| 平近点角 | 251.190° |
| 近地点: | 877.85km |
| 远地点: | 896.028km |
| 周期: | 102.712分钟 |
| 每日圈数: | 14.01983 |